site,time,unit,value
Cardigan,2024-03-27T00:05:00+00:00,MW,2.387
Cardigan,2024-03-27T00:10:00+00:00,MW,2.396
Cardigan,2024-03-27T00:15:00+00:00,MW,2.397
Cardigan,2024-03-27T00:20:00+00:00,MW,2.417
Cardigan,2024-03-27T00:25:00+00:00,MW,2.48
Cardigan,2024-03-27T00:30:00+00:00,MW,2.5020000000000002
Cardigan,2024-03-27T00:35:00+00:00,MW,2.652
Cardigan,2024-03-27T00:40:00+00:00,MW,2.6710000000000003
Cardigan,2024-03-27T00:45:00+00:00,MW,2.644
Cardigan,2024-03-27T00:50:00+00:00,MW,2.659
Cardigan,2024-03-27T00:55:00+00:00,MW,2.6470000000000002
Cardigan,2024-03-27T01:00:00+00:00,MW,2.63
Cardigan,2024-03-27T01:05:00+00:00,MW,2.633
Cardigan,2024-03-27T01:10:00+00:00,MW,2.6239999999999997
Cardigan,2024-03-27T01:15:00+00:00,MW,2.63
Cardigan,2024-03-27T01:20:00+00:00,MW,2.5949999999999998
Cardigan,2024-03-27T01:25:00+00:00,MW,2.635
Cardigan,2024-03-27T01:30:00+00:00,MW,2.649
Cardigan,2024-03-27T01:35:00+00:00,MW,2.62
Cardigan,2024-03-27T01:40:00+00:00,MW,2.634
Cardigan,2024-03-27T01:45:00+00:00,MW,2.576
Cardigan,2024-03-27T01:50:00+00:00,MW,2.526
Cardigan,2024-03-27T01:55:00+00:00,MW,2.563
Cardigan,2024-03-27T02:00:00+00:00,MW,2.54
Cardigan,2024-03-27T02:05:00+00:00,MW,2.5549999999999997
Cardigan,2024-03-27T02:10:00+00:00,MW,2.517
Cardigan,2024-03-27T02:15:00+00:00,MW,2.478
Cardigan,2024-03-27T02:20:00+00:00,MW,2.4770000000000003
Cardigan,2024-03-27T02:25:00+00:00,MW,2.481
Cardigan,2024-03-27T02:30:00+00:00,MW,2.424
Cardigan,2024-03-27T02:35:00+00:00,MW,2.413
Cardigan,2024-03-27T02:40:00+00:00,MW,2.476
Cardigan,2024-03-27T02:45:00+00:00,MW,2.5709999999999997
Cardigan,2024-03-27T02:50:00+00:00,MW,2.617
Cardigan,2024-03-27T02:55:00+00:00,MW,2.565
Cardigan,2024-03-27T03:00:00+00:00,MW,2.56
Cardigan,2024-03-27T03:05:00+00:00,MW,2.551
Cardigan,2024-03-27T03:10:00+00:00,MW,2.539
Cardigan,2024-03-27T03:15:00+00:00,MW,2.544
Cardigan,2024-03-27T03:20:00+00:00,MW,2.471
Cardigan,2024-03-27T03:25:00+00:00,MW,2.415
Cardigan,2024-03-27T03:30:00+00:00,MW,2.436
Cardigan,2024-03-27T03:35:00+00:00,MW,2.449
Cardigan,2024-03-27T03:40:00+00:00,MW,2.444
Cardigan,2024-03-27T03:45:00+00:00,MW,2.4459999999999997
Cardigan,2024-03-27T03:50:00+00:00,MW,2.439
Cardigan,2024-03-27T03:55:00+00:00,MW,2.44
Cardigan,2024-03-27T04:00:00+00:00,MW,2.579
Cardigan,2024-03-27T04:05:00+00:00,MW,2.582
Cardigan,2024-03-27T04:10:00+00:00,MW,2.525
Cardigan,2024-03-27T04:15:00+00:00,MW,2.47
Cardigan,2024-03-27T04:20:00+00:00,MW,2.472
Cardigan,2024-03-27T04:25:00+00:00,MW,2.501
Cardigan,2024-03-27T04:30:00+00:00,MW,2.44
Cardigan,2024-03-27T04:35:00+00:00,MW,2.467
Cardigan,2024-03-27T04:40:00+00:00,MW,2.495
Cardigan,2024-03-27T04:45:00+00:00,MW,2.582
Cardigan,2024-03-27T04:50:00+00:00,MW,2.479
Cardigan,2024-03-27T04:55:00+00:00,MW,2.508
Cardigan,2024-03-27T05:00:00+00:00,MW,2.474
Cardigan,2024-03-27T05:05:00+00:00,MW,2.438
Cardigan,2024-03-27T05:10:00+00:00,MW,2.529
Cardigan,2024-03-27T05:15:00+00:00,MW,2.625
Cardigan,2024-03-27T05:20:00+00:00,MW,2.6670000000000003
Cardigan,2024-03-27T05:25:00+00:00,MW,2.629
Cardigan,2024-03-27T05:30:00+00:00,MW,2.601
Cardigan,2024-03-27T05:35:00+00:00,MW,2.576
Cardigan,2024-03-27T05:40:00+00:00,MW,2.583
Cardigan,2024-03-27T05:45:00+00:00,MW,2.602
Cardigan,2024-03-27T05:50:00+00:00,MW,2.62
Cardigan,2024-03-27T05:55:00+00:00,MW,2.66
Cardigan,2024-03-27T06:00:00+00:00,MW,2.66
Cardigan,2024-03-27T06:05:00+00:00,MW,2.717
Cardigan,2024-03-27T06:10:00+00:00,MW,2.705
Cardigan,2024-03-27T06:15:00+00:00,MW,2.77
Cardigan,2024-03-27T06:20:00+00:00,MW,2.907
Cardigan,2024-03-27T06:25:00+00:00,MW,2.9080000000000004
Cardigan,2024-03-27T06:30:00+00:00,MW,2.92
Cardigan,2024-03-27T06:35:00+00:00,MW,3.0410000000000004
Cardigan,2024-03-27T06:40:00+00:00,MW,3.106
Cardigan,2024-03-27T06:45:00+00:00,MW,3.1580000000000004
Cardigan,2024-03-27T06:50:00+00:00,MW,2.988
Cardigan,2024-03-27T06:55:00+00:00,MW,2.9539999999999997
Cardigan,2024-03-27T07:00:00+00:00,MW,2.991
Cardigan,2024-03-27T07:05:00+00:00,MW,3.0250000000000004
Cardigan,2024-03-27T07:10:00+00:00,MW,3.057
Cardigan,2024-03-27T07:15:00+00:00,MW,3.1390000000000002
Cardigan,2024-03-27T07:20:00+00:00,MW,3.112
Cardigan,2024-03-27T07:25:00+00:00,MW,3.092
Cardigan,2024-03-27T07:30:00+00:00,MW,3.158
Cardigan,2024-03-27T07:35:00+00:00,MW,3.217
Cardigan,2024-03-27T07:40:00+00:00,MW,3.323
Cardigan,2024-03-27T07:45:00+00:00,MW,3.3409999999999997
Cardigan,2024-03-27T07:50:00+00:00,MW,3.3810000000000002
Cardigan,2024-03-27T07:55:00+00:00,MW,3.384
Cardigan,2024-03-27T08:00:00+00:00,MW,3.46
Cardigan,2024-03-27T08:05:00+00:00,MW,3.508
Cardigan,2024-03-27T08:10:00+00:00,MW,3.572
Cardigan,2024-03-27T08:15:00+00:00,MW,3.585
Cardigan,2024-03-27T08:20:00+00:00,MW,3.61
Cardigan,2024-03-27T08:25:00+00:00,MW,3.597
Cardigan,2024-03-27T08:30:00+00:00,MW,3.731
Cardigan,2024-03-27T08:35:00+00:00,MW,3.8689999999999998
Cardigan,2024-03-27T08:40:00+00:00,MW,3.845
Cardigan,2024-03-27T08:45:00+00:00,MW,3.827
Cardigan,2024-03-27T08:50:00+00:00,MW,3.8970000000000002
Cardigan,2024-03-27T08:55:00+00:00,MW,4.008
Cardigan,2024-03-27T09:00:00+00:00,MW,3.965
Cardigan,2024-03-27T09:05:00+00:00,MW,3.991
Cardigan,2024-03-27T09:10:00+00:00,MW,3.9240000000000004
Cardigan,2024-03-27T09:15:00+00:00,MW,3.7920000000000003
Cardigan,2024-03-27T09:20:00+00:00,MW,3.726
Cardigan,2024-03-27T09:25:00+00:00,MW,3.766
Cardigan,2024-03-27T09:30:00+00:00,MW,3.718
Cardigan,2024-03-27T09:35:00+00:00,MW,3.558
Cardigan,2024-03-27T09:40:00+00:00,MW,3.397
Cardigan,2024-03-27T09:45:00+00:00,MW,3.657
Cardigan,2024-03-27T09:50:00+00:00,MW,3.4670000000000005
Cardigan,2024-03-27T09:55:00+00:00,MW,3.4450000000000003
Cardigan,2024-03-27T10:00:00+00:00,MW,3.476
Cardigan,2024-03-27T10:05:00+00:00,MW,3.596
Cardigan,2024-03-27T10:10:00+00:00,MW,3.5460000000000003
Cardigan,2024-03-27T10:15:00+00:00,MW,3.45
Cardigan,2024-03-27T10:20:00+00:00,MW,3.8209999999999997
Cardigan,2024-03-27T10:25:00+00:00,MW,4.088
Cardigan,2024-03-27T10:30:00+00:00,MW,4.115
Cardigan,2024-03-27T10:35:00+00:00,MW,3.803
Cardigan,2024-03-27T10:40:00+00:00,MW,3.51
Cardigan,2024-03-27T10:45:00+00:00,MW,3.535
Cardigan,2024-03-27T10:50:00+00:00,MW,3.547
Cardigan,2024-03-27T10:55:00+00:00,MW,3.4559999999999995
Cardigan,2024-03-27T11:00:00+00:00,MW,3.4509999999999996
Cardigan,2024-03-27T11:05:00+00:00,MW,3.444
Cardigan,2024-03-27T11:10:00+00:00,MW,3.4939999999999998
Cardigan,2024-03-27T11:15:00+00:00,MW,3.712
Cardigan,2024-03-27T11:20:00+00:00,MW,3.5629999999999997
Cardigan,2024-03-27T11:25:00+00:00,MW,3.574
Cardigan,2024-03-27T11:30:00+00:00,MW,3.96
Cardigan,2024-03-27T11:35:00+00:00,MW,3.9669999999999996
Cardigan,2024-03-27T11:40:00+00:00,MW,4.0329999999999995
Cardigan,2024-03-27T11:45:00+00:00,MW,3.32
Cardigan,2024-03-27T11:50:00+00:00,MW,3.2249999999999996
Cardigan,2024-03-27T11:55:00+00:00,MW,3.596
Cardigan,2024-03-27T12:00:00+00:00,MW,3.761
Cardigan,2024-03-27T12:05:00+00:00,MW,3.717
Cardigan,2024-03-27T12:10:00+00:00,MW,3.21
Cardigan,2024-03-27T12:15:00+00:00,MW,3.176
Cardigan,2024-03-27T12:20:00+00:00,MW,3.155
Cardigan,2024-03-27T12:25:00+00:00,MW,3.184
Cardigan,2024-03-27T12:30:00+00:00,MW,3.3179999999999996
Cardigan,2024-03-27T12:35:00+00:00,MW,3.29
Cardigan,2024-03-27T12:40:00+00:00,MW,3.247
Cardigan,2024-03-27T12:45:00+00:00,MW,3.353
Cardigan,2024-03-27T12:50:00+00:00,MW,3.631
Cardigan,2024-03-27T12:55:00+00:00,MW,3.743
Cardigan,2024-03-27T13:00:00+00:00,MW,3.789
Cardigan,2024-03-27T13:05:00+00:00,MW,3.846
Cardigan,2024-03-27T13:10:00+00:00,MW,3.886
Cardigan,2024-03-27T13:15:00+00:00,MW,3.906
Cardigan,2024-03-27T13:20:00+00:00,MW,3.729
Cardigan,2024-03-27T13:25:00+00:00,MW,3.4219999999999997
Cardigan,2024-03-27T13:30:00+00:00,MW,3.423
Cardigan,2024-03-27T13:35:00+00:00,MW,3.5839999999999996
Cardigan,2024-03-27T13:40:00+00:00,MW,3.396
Cardigan,2024-03-27T13:45:00+00:00,MW,3.353
Cardigan,2024-03-27T13:50:00+00:00,MW,3.136
Cardigan,2024-03-27T13:55:00+00:00,MW,3.275
Cardigan,2024-03-27T14:00:00+00:00,MW,3.452
Cardigan,2024-03-27T14:05:00+00:00,MW,3.5439999999999996
Cardigan,2024-03-27T14:10:00+00:00,MW,3.781
Cardigan,2024-03-27T14:15:00+00:00,MW,3.865
Cardigan,2024-03-27T14:20:00+00:00,MW,3.9560000000000004
Cardigan,2024-03-27T14:25:00+00:00,MW,4.0360000000000005
Cardigan,2024-03-27T14:30:00+00:00,MW,4.129
Cardigan,2024-03-27T14:35:00+00:00,MW,4.016
Cardigan,2024-03-27T14:40:00+00:00,MW,3.8289999999999997
Cardigan,2024-03-27T14:45:00+00:00,MW,3.76
Cardigan,2024-03-27T14:50:00+00:00,MW,3.9139999999999997
Cardigan,2024-03-27T14:55:00+00:00,MW,3.927
Cardigan,2024-03-27T15:00:00+00:00,MW,3.4130000000000003
Cardigan,2024-03-27T15:05:00+00:00,MW,3.2830000000000004
Cardigan,2024-03-27T15:10:00+00:00,MW,3.675
Cardigan,2024-03-27T15:15:00+00:00,MW,3.719
Cardigan,2024-03-27T15:20:00+00:00,MW,3.4579999999999997
Cardigan,2024-03-27T15:25:00+00:00,MW,3.4050000000000002
Cardigan,2024-03-27T15:30:00+00:00,MW,3.484
Cardigan,2024-03-27T15:35:00+00:00,MW,3.824
Cardigan,2024-03-27T15:40:00+00:00,MW,3.8
Cardigan,2024-03-27T15:45:00+00:00,MW,3.512
Cardigan,2024-03-27T15:50:00+00:00,MW,3.492
Cardigan,2024-03-27T15:55:00+00:00,MW,3.677
Cardigan,2024-03-27T16:00:00+00:00,MW,3.8369999999999997
Cardigan,2024-03-27T16:05:00+00:00,MW,3.787
Cardigan,2024-03-27T16:10:00+00:00,MW,3.736
Cardigan,2024-03-27T16:15:00+00:00,MW,3.624
Cardigan,2024-03-27T16:20:00+00:00,MW,3.795
Cardigan,2024-03-27T16:25:00+00:00,MW,3.9899999999999998
Cardigan,2024-03-27T16:30:00+00:00,MW,4.005
Cardigan,2024-03-27T16:35:00+00:00,MW,3.88
Cardigan,2024-03-27T16:40:00+00:00,MW,3.86
Cardigan,2024-03-27T16:45:00+00:00,MW,3.893
Cardigan,2024-03-27T16:50:00+00:00,MW,3.835
Cardigan,2024-03-27T16:55:00+00:00,MW,3.9539999999999997
Cardigan,2024-03-27T17:00:00+00:00,MW,4.01
Cardigan,2024-03-27T17:05:00+00:00,MW,4.189
Cardigan,2024-03-27T17:10:00+00:00,MW,4.17
Cardigan,2024-03-27T17:15:00+00:00,MW,4.22
Cardigan,2024-03-27T17:20:00+00:00,MW,4.308
Cardigan,2024-03-27T17:25:00+00:00,MW,4.311
Cardigan,2024-03-27T17:30:00+00:00,MW,4.263
Cardigan,2024-03-27T17:35:00+00:00,MW,4.367
Cardigan,2024-03-27T17:40:00+00:00,MW,4.359999999999999
Cardigan,2024-03-27T17:45:00+00:00,MW,4.306
Cardigan,2024-03-27T17:50:00+00:00,MW,4.292
Cardigan,2024-03-27T17:55:00+00:00,MW,4.078
Cardigan,2024-03-27T18:00:00+00:00,MW,3.9909999999999997
Cardigan,2024-03-27T18:05:00+00:00,MW,3.987
Cardigan,2024-03-27T18:10:00+00:00,MW,4.042
Cardigan,2024-03-27T18:15:00+00:00,MW,4.067
Cardigan,2024-03-27T18:20:00+00:00,MW,4.141
Cardigan,2024-03-27T18:25:00+00:00,MW,4.127
Cardigan,2024-03-27T18:30:00+00:00,MW,4.16
Cardigan,2024-03-27T18:35:00+00:00,MW,4.188000000000001
Cardigan,2024-03-27T18:40:00+00:00,MW,4.147
Cardigan,2024-03-27T18:45:00+00:00,MW,4.148
Cardigan,2024-03-27T18:50:00+00:00,MW,4.079000000000001
Cardigan,2024-03-27T18:55:00+00:00,MW,4.186
Cardigan,2024-03-27T19:00:00+00:00,MW,4.162
Cardigan,2024-03-27T19:05:00+00:00,MW,4.165
Cardigan,2024-03-27T19:10:00+00:00,MW,4.154
Cardigan,2024-03-27T19:15:00+00:00,MW,4.14
Cardigan,2024-03-27T19:20:00+00:00,MW,4.143
Cardigan,2024-03-27T19:25:00+00:00,MW,4.149
Cardigan,2024-03-27T19:30:00+00:00,MW,4.085
Cardigan,2024-03-27T19:35:00+00:00,MW,4.12
Cardigan,2024-03-27T19:40:00+00:00,MW,4.013
Cardigan,2024-03-27T19:45:00+00:00,MW,3.995
Cardigan,2024-03-27T19:50:00+00:00,MW,3.952
Cardigan,2024-03-27T19:55:00+00:00,MW,3.884
Cardigan,2024-03-27T20:00:00+00:00,MW,3.909
Cardigan,2024-03-27T20:05:00+00:00,MW,3.876
Cardigan,2024-03-27T20:10:00+00:00,MW,3.8369999999999997
Cardigan,2024-03-27T20:15:00+00:00,MW,3.856
Cardigan,2024-03-27T20:20:00+00:00,MW,3.753
Cardigan,2024-03-27T20:25:00+00:00,MW,3.668
Cardigan,2024-03-27T20:30:00+00:00,MW,3.5300000000000002
Cardigan,2024-03-27T20:35:00+00:00,MW,3.553
Cardigan,2024-03-27T20:40:00+00:00,MW,3.543
Cardigan,2024-03-27T20:45:00+00:00,MW,3.517
Cardigan,2024-03-27T20:50:00+00:00,MW,3.573
Cardigan,2024-03-27T20:55:00+00:00,MW,3.561
Cardigan,2024-03-27T21:00:00+00:00,MW,3.503
Cardigan,2024-03-27T21:05:00+00:00,MW,3.509
Cardigan,2024-03-27T21:10:00+00:00,MW,3.4400000000000004
Cardigan,2024-03-27T21:15:00+00:00,MW,3.471
Cardigan,2024-03-27T21:20:00+00:00,MW,3.431
Cardigan,2024-03-27T21:25:00+00:00,MW,3.307
Cardigan,2024-03-27T21:30:00+00:00,MW,3.245
Cardigan,2024-03-27T21:35:00+00:00,MW,3.1399999999999997
Cardigan,2024-03-27T21:40:00+00:00,MW,3.15
Cardigan,2024-03-27T21:45:00+00:00,MW,3.113
Cardigan,2024-03-27T21:50:00+00:00,MW,3.067
Cardigan,2024-03-27T21:55:00+00:00,MW,2.997
Cardigan,2024-03-27T22:00:00+00:00,MW,2.976
Cardigan,2024-03-27T22:05:00+00:00,MW,2.975
Cardigan,2024-03-27T22:10:00+00:00,MW,2.8310000000000004
Cardigan,2024-03-27T22:15:00+00:00,MW,2.7969999999999997
Cardigan,2024-03-27T22:20:00+00:00,MW,2.725
Cardigan,2024-03-27T22:25:00+00:00,MW,2.672
Cardigan,2024-03-27T22:30:00+00:00,MW,2.66
Cardigan,2024-03-27T22:35:00+00:00,MW,2.716
Cardigan,2024-03-27T22:40:00+00:00,MW,2.651
Cardigan,2024-03-27T22:45:00+00:00,MW,2.635
Cardigan,2024-03-27T22:50:00+00:00,MW,2.567
Cardigan,2024-03-27T22:55:00+00:00,MW,2.487
Cardigan,2024-03-27T23:00:00+00:00,MW,2.432
Cardigan,2024-03-27T23:05:00+00:00,MW,2.424
Cardigan,2024-03-27T23:10:00+00:00,MW,2.371
Cardigan,2024-03-27T23:15:00+00:00,MW,2.3890000000000002
Cardigan,2024-03-27T23:20:00+00:00,MW,2.432
Cardigan,2024-03-27T23:25:00+00:00,MW,2.4130000000000003
Cardigan,2024-03-27T23:30:00+00:00,MW,2.376
Cardigan,2024-03-27T23:35:00+00:00,MW,2.341
Cardigan,2024-03-27T23:40:00+00:00,MW,2.297
Cardigan,2024-03-27T23:45:00+00:00,MW,2.262
Cardigan,2024-03-27T23:50:00+00:00,MW,2.216
Cardigan,2024-03-27T23:55:00+00:00,MW,2.216
Cardigan,2024-03-28T00:00:00+00:00,MW,2.258
